sat.trackr.live / text

‹ back to catalog

STARLINK-2618

NORAD 48693 · 2021-044BH

PAYLOAD ACTIVE UNKNOWN

§ Identity

Operator
Country
US
Launch date
2021-05-26
Launch site
AFETR
Launch vehicle
Mass (kg)
RCS (m²)

Purposes: comms

External: N2YO · Heavens-Above · Gunter

§ Orbital elements

Epoch: 2026-09-12T09:26:43.934784Z

Period
94.01 min
Inclination
53.1596°
Eccentricity
0.0001214
Mean motion
15.31696581 rev/d
Perigee alt
469.9 km
Apogee alt
471.6 km
Semi-major
6,848.9 km
B*
7.2291e-5
RAAN
286.3665°
Arg perigee
96.6782°
Mean anomaly
263.4357°
Rev number
29,297

§ Raw data

STARLINK-26181 48693U 21044BH  26255.39356406  .00001879  00000+0  72291-4 0  99962 48693  53.1596 286.3665 0001214  96.6782 263.4357 15.31696581292977

JSON: /api/v1/satellites/48693 · /tle

For live sub-satellite position, see the globe view (requires WebGL).

§ Visibility from observer

Set your observer location to see the next 7 days of passes ≥ 10°. The values pass through the URL so the page stays shareable.

No JS? Fill the form by hand. The geolocation button needs JavaScript.